DL1NER Weather Reports


time (UTC)temp
C
wind
direction
speed
KPH
gust
KPH
rain 1hr
cm
rain 24hr
cm
rain mn
cm
humidity
%
barometer
mb
20260903101011 21 212 6.4 14.5 0.00 0.00 0.00 52 1021.7
20260903100011 21 245 8.0 19.3 0.00 0.00 0.00 55 1021.8
20260903095011 21 254 9.7 22.5 0.00 0.00 0.00 52 1021.7
20260903094011 21 286 8.0 17.7 0.00 0.00 0.00 52 1021.7
20260903093009 21 245 9.7 19.3 0.00 0.00 0.00 55 1021.4
20260903092019 21 245 9.7 19.3 0.00 0.00 0.00 55 1021.4
20260903091011 20 264 11.3 19.3 0.00 0.00 0.00 56 1021.5
20260903090010 20 282 9.7 25.7 0.00 0.00 0.00 59 1021.4
20260903085010 20 244 11.3 22.5 0.00 0.00 0.00 56 1021.5
20260903084009 20 216 6.4 14.5 0.00 0.00 0.00 59 1021.6
20260903083009 20 262 4.8 14.5 0.00 0.00 0.00 61 1021.6
20260903082009 19 251 6.4 16.1 0.00 0.00 0.00 61 1021.5
20260903081009 19 223 4.8 12.9 0.00 0.00 0.00 65 1021.4
20260903080009 18 250 4.8 14.5 0.00 0.00 0.00 63 1021.2
20260903075009 18 250 4.8 14.5 0.00 0.00 0.00 63 1021.2
20260903074009 18 236 4.8 16.1 0.00 0.00 0.00 66 1021.5
20260903073009 17 234 4.8 16.1 0.00 0.00 0.00 69 1021.6
20260903072009 16 267 6.4 12.9 0.00 0.00 0.00 71 1021.8
20260903071009 15 273 1.6 11.3 0.00 0.00 0.00 75 1021.8
20260903070009 14 303 0.0 0.0 0.00 0.00 0.00 78 1021.7
20260903065010 13 303 0.0 3.2 0.00 0.00 0.00 81 1021.7
20260903064009 13 303 0.0 1.6 0.00 0.00 0.00 82 1021.7
20260903063009 13 303 0.0 3.2 0.00 0.00 0.00 85 1021.8
20260903062009 12 303 0.0 0.0 0.00 0.00 0.00 90 1021.7
20260903061010 12 302 0.0 0.0 0.00 0.00 0.00 91 1021.8
20260903060009 12 302 0.0 0.0 0.00 0.00 0.00 91 1021.9
20260903055009 11 302 0.0 0.0 0.00 0.00 0.00 91 1021.8
20260903054009 11 302 1.6 4.8 0.00 0.00 0.00 91 1021.8
20260903053009 11 309 1.6 4.8 0.00 0.00 0.00 91 1021.5
20260903052009 10 313 0.0 3.2 0.00 0.00 0.00 89 1021.4
20260903051008 10 313 0.0 0.0 0.00 0.00 0.00 88 1021.3
20260903050009 10 313 0.0 0.0 0.00 0.00 0.00 87 1021.2
20260903045009 11 313 0.0 0.0 0.00 0.00 0.00 86 1021.1
20260903044009 11 313 0.0 0.0 0.00 0.00 0.00 85 1021.1
20260903043009 11 313 0.0 0.0 0.00 0.00 0.00 85 1021.3
20260903042014 11 313 0.0 0.0 0.00 0.00 0.00 84 1021.3
20260903041008 11 313 0.0 0.0 0.00 0.00 0.00 84 1021.3
20260903040009 11 313 0.0 0.0 0.00 0.00 0.00 84 1021.3
20260903035008 11 313 0.0 0.0 0.00 0.00 0.00 84 1021.3
20260903034008 11 313 0.0 0.0 0.00 0.00 0.00 84 1021.4
20260903033008 12 313 0.0 0.0 0.00 0.00 0.00 83 1021.3
20260903032008 12 313 0.0 0.0 0.00 0.00 0.00 83 1021.3
20260903031008 12 313 0.0 0.0 0.00 0.00 0.00 82 1021.3
20260903030008 12 313 1.6 3.2 0.00 0.00 0.00 82 1021.3
20260903025008 12 313 3.2 4.8 0.00 0.00 0.00 80 1021.4
20260903024008 12 313 3.2 4.8 0.00 0.00 0.00 80 1021.4
20260903023021 12 313 3.2 4.8 0.00 0.00 0.00 79 1021.4
20260903022012 12 313 1.6 4.8 0.00 0.00 0.00 78 1021.3
20260903021012 13 313 0.0 0.0 0.00 0.00 0.00 77 1021.1
20260903020012 13 313 0.0 0.0 0.00 0.00 0.00 76 1021.2
20260903015012 13 313 0.0 0.0 0.00 0.00 0.00 76 1021.2
20260903014012 13 313 0.0 0.0 0.00 0.00 0.00 74 1021.2
20260903013012 13 313 0.0 3.2 0.00 0.00 0.00 74 1021.3
20260903012012 13 313 0.0 3.2 0.00 0.00 0.00 74 1021.4
20260903011012 14 313 1.6 3.2 0.00 0.00 0.00 73 1021.3
20260903010012 14 313 1.6 3.2 0.00 0.00 0.00 74 1021.2
20260903005012 14 313 0.0 3.2 0.00 0.00 0.00 73 1021.2
20260903004012 14 313 1.6 4.8 0.00 0.00 0.00 72 1021.1
20260903003012 14 313 1.6 4.8 0.00 0.00 0.00 72 1021.1
20260903002011 15 313 3.2 4.8 0.00 0.00 0.00 72 1021.1
20260903001011 15 313 1.6 4.8 0.00 0.00 0.00 72 1021.1
20260903000011 15 313 1.6 6.4 0.00 0.00 0.00 72 1021.0
20260902235011 15 313 0.0 0.0 0.00 0.00 0.00 71 1021.0
20260902234011 15 313 1.6 3.2 0.00 0.00 0.00 71 1021.0
20260902233012 15 313 1.6 4.8 0.00 0.00 0.00 71 1021.2
20260902232012 15 313 1.6 6.4 0.00 0.00 0.00 71 1021.1
20260902231011 16 325 1.6 4.8 0.00 0.00 0.00 70 1021.0
20260902230011 16 325 0.0 4.8 0.00 0.00 0.00 70 1021.1
20260902225011 16 325 0.0 0.0 0.00 0.00 0.00 70 1021.1
20260902224011 16 325 0.0 0.0 0.00 0.00 0.00 70 1021.1
20260902223011 16 325 0.0 0.0 0.00 0.00 0.00 69 1021.1
20260902222011 16 325 0.0 0.0 0.00 0.00 0.00 70 1021.2
20260902221011 16 325 0.0 0.0 0.00 0.00 0.00 69 1021.1
20260902220011 16 325 0.0 0.0 0.00 0.00 0.00 69 1021.0
20260902215011 16 325 0.0 0.0 0.00 0.00 0.00 69 1021.0
20260902214011 16 325 0.0 3.2 0.00 0.00 0.00 69 1021.1
20260902213011 16 325 1.6 4.8 0.00 0.00 0.00 68 1021.0
20260902212011 16 325 0.0 0.0 0.00 0.00 0.00 68 1021.1
20260902211011 17 325 1.6 4.8 0.00 0.00 0.00 68 1021.0
20260902210011 17 325 1.6 4.8 0.00 0.00 0.00 68 1021.0
20260902205011 17 325 3.2 4.8 0.00 0.00 0.00 68 1020.9
20260902204011 17 325 3.2 4.8 0.00 0.00 0.00 67 1020.8
20260902203010 17 325 3.2 4.8 0.00 0.00 0.00 66 1020.8
20260902202010 17 325 1.6 4.8 0.00 0.00 0.00 66 1020.7
20260902201010 17 325 1.6 4.8 0.00 0.00 0.00 66 1020.5
20260902200010 17 325 0.0 3.2 0.00 0.00 0.00 65 1020.5
20260902195010 17 325 1.6 4.8 0.00 0.00 0.00 64 1020.5
20260902194010 17 325 3.2 4.8 0.00 0.00 0.00 65 1020.5
20260902193010 18 325 3.2 4.8 0.00 0.00 0.00 64 1020.4
20260902192010 18 325 0.0 4.8 0.00 0.00 0.00 63 1020.5
20260902191010 18 325 0.0 0.0 0.00 0.00 0.00 62 1020.4
20260902190010 18 325 0.0 0.0 0.00 0.00 0.00 61 1020.2
20260902185010 18 325 0.0 0.0 0.00 0.00 0.00 60 1020.2
20260902184010 19 325 1.6 3.2 0.00 0.00 0.00 59 1020.0
20260902183010 19 325 1.6 3.2 0.00 0.00 0.00 58 1019.9
20260902182010 20 325 0.0 0.0 0.00 0.00 0.00 57 1019.8
20260902181010 20 325 0.0 0.0 0.00 0.00 0.00 56 1019.7
20260902180011 20 325 1.6 3.2 0.00 0.00 0.00 55 1019.6
20260902175010 21 325 0.0 3.2 0.00 0.00 0.00 55 1019.5
20260902174010 21 325 3.2 6.4 0.00 0.00 0.00 54 1019.5
20260902173009 21 321 3.2 8.0 0.00 0.00 0.00 53 1019.4
20260902172010 21 321 3.2 8.0 0.00 0.00 0.00 53 1019.4
20260902171010 22 299 6.4 12.9 0.00 0.00 0.00 53 1019.4
20260902170011 21 263 6.4 14.5 0.00 0.00 0.00 54 1019.4
20260902165010 21 304 4.8 12.9 0.00 0.00 0.00 54 1019.4
20260902164009 22 294 4.8 14.5 0.00 0.00 0.00 53 1019.3
20260902163011 22 275 9.7 17.7 0.00 0.00 0.00 54 1019.3
20260902162009 22 263 4.8 11.3 0.00 0.00 0.00 53 1019.4
20260902161009 22 268 4.8 11.3 0.00 0.00 0.00 53 1019.3
20260902160011 22 268 4.8 11.3 0.00 0.00 0.00 53 1019.3
20260902155010 22 267 3.2 16.1 0.00 0.00 0.00 52 1019.4
20260902154009 22 255 4.8 14.5 0.00 0.00 0.00 53 1019.5
20260902153015 22 255 3.2 14.5 0.00 0.00 0.00 53 1019.5
20260902152013 23 268 8.0 17.7 0.00 0.00 0.00 52 1019.5
20260902151013 23 242 8.0 24.1 0.00 0.00 0.00 52 1019.5
20260902150014 23 238 3.2 8.0 0.00 0.00 0.00 52 1019.4
20260902145013 23 273 3.2 9.7 0.00 0.00 0.00 49 1019.4
20260902144013 23 230 4.8 11.3 0.00 0.00 0.00 50 1019.5
20260902143013 24 239 4.8 11.3 0.00 0.00 0.00 49 1019.5
20260902142013 24 225 6.4 16.1 0.00 0.00 0.00 47 1019.6
20260902141013 25 290 8.0 20.9 0.00 0.00 0.00 48 1019.6
20260902140013 25 221 6.4 16.1 0.00 0.00 0.00 51 1019.5
20260902135013 24 289 6.4 12.9 0.00 0.00 0.00 48 1019.6
20260902134013 25 277 4.8 12.9 0.00 0.00 0.00 47 1019.6
20260902133013 23 153 6.4 14.5 0.00 0.00 0.00 50 1019.6
20260902132013 23 275 8.0 17.7 0.00 0.00 0.00 50 1019.7
20260902131013 23 274 6.4 14.5 0.00 0.00 0.00 51 1019.7
20260902130013 23 231 4.8 11.3 0.00 0.00 0.00 49 1019.9
20260902125012 23 260 3.2 9.7 0.00 0.00 0.00 52 1019.8
20260902124012 23 262 6.4 12.9 0.00 0.00 0.00 53 1019.9
20260902123013 24 261 1.6 6.4 0.00 0.00 0.00 53 1020.0
20260902122013 23 254 1.6 6.4 0.00 0.00 0.00 52 1020.0
20260902121013 23 255 1.6 6.4 0.00 0.00 0.00 53 1020.1
20260902120012 22 339 4.8 12.9 0.00 0.00 0.00 55 1020.2
20260902115012 22 312 4.8 12.9 0.00 0.00 0.00 53 1020.4
20260902114012 23 250 4.8 11.3 0.00 0.00 0.00 52 1020.4
20260902113012 24 132 4.8 11.3 0.00 0.00 0.00 51 1020.6
20260902112012 24 138 4.8 11.3 0.00 0.00 0.00 52 1020.6
20260902111012 23 290 4.8 12.9 0.00 0.00 0.00 50 1020.7
20260902110012 23 180 4.8 11.3 0.00 0.00 0.00 50 1020.9
20260902105012 23 153 3.2 8.0 0.00 0.00 0.00 59 1021.0
20260902104012 22 139 3.2 8.0 0.00 0.00 0.00 62 1021.2
20260902103012 22 197 4.8 8.0 0.00 0.00 0.00 62 1021.3
20260902102012 21 132 3.2 11.3 0.00 0.00 0.00 64 1021.4